Regional Weather Roundup
Issued by NWS

Home | Current Version | Previous Version | Text Only | Print | Product List | Glossary On
Versions: 1 2 3 4 5 6 7 8 9 10 11 12 13 14 15 16 17 18 19 20 21 22 23 24 25 26 27 28 29 30 31 32 33 34 35 36 37 38 39 40 41 42 43 44 45 46 47 48 49 50
000
ASUS43 KMPX 060001
RWRMN
WEATHER ROUNDUP FOR MINNESOTA
NATIONAL WEATHER SERVICE TWIN CITIES/CHANHASSEN MN
700 PM CDT SUN JUL 05 2015


NOTE: "FAIR" INDICATES FEW OR NO CLOUDS BELOW 12,000 FEET WITH NO
SIGNIFICANT WEATHER AND/OR OBSTRUCTIONS TO VISIBILITY. N/A MEANS
CURRENT SKY AND/OR WEATHER CONDITIONS ARE NOT AVAILABLE.

MNZ060>063-068>070-060100-
   Twin Cities Metro

CITY           SKY/WX    TMP DP  RH WIND       PRES   REMARKS
TWIN CITIES    PTSUNNY   85  69  58 S20       29.82F
6HR MIN TEMP:  82; 6HR MAX TEMP:  88;

ST PAUL        PTSUNNY   83  70  64 S21       29.82F
CRYSTAL        PTSUNNY   87  70  56 S15       29.80F HX  92
BLAINE         PTSUNNY   84  70  61 S16G24    29.82F
LAKEVILLE      MOSUNNY   81  70  69 S12G20    29.84F
EDEN PRAIRIE   CLOUDY    84  70  62 S12       29.81F
6HR MIN TEMP:  82; 6HR MAX TEMP:  87;

SOUTH ST PAUL  MOSUNNY   84  68  58 S13       29.82F
LAKE ELMO      PTSUNNY   81  70  69 S16       29.85F
$$
MNZ001>005-007-008-013>017-022>024-027-028-060100-
   Northwest Minnesota

CITY           SKY/WX    TMP DP  RH WIND       PRES   REMARKS
BEMIDJI        CLOUDY    67  65  96 N6        29.78R
HALLOCK        MOSUNNY   72  66  83 NW9       29.82R HAZE
ROSEAU         MOSUNNY   73  66  78 NW10      29.80R
WARROAD        PTSUNNY   72  66  83 W8        29.80R
THIEF RVR FALL PTSUNNY   72  66  83 NW15      29.81S
CROOKSTON      MOSUNNY   75  66  73 N15       29.81R
FOSSTON        PTSUNNY   73  64  73 W12G17    29.81R
DETROIT LAKES  PTSUNNY   82  70  65 W10       29.78S
MOORHEAD       MOSUNNY   79  70  73 N17       29.79R
PARK RAPIDS    PTSUNNY   84  67  56 SW13      29.77S
MAHNOMEN       CLOUDY    76  67  74 N12G21    29.78R
$$
MNZ006-009>011-018-025>026-060100-
   North Central Minnesota

CITY           SKY/WX    TMP DP  RH WIND       PRES   REMARKS
BAUDETTE       PTSUNNY   72  65  78 NW12      29.77S
FLAG ISLAND    PTSUNNY   70  64  83 NW10      29.77R
INTL FALLS     CLOUDY    73  62  68 W12G21    29.76R
6HR MIN TEMP:  71; 6HR MAX TEMP:  80; 6HR PCP: TRACE;

WASKISH        CLOUDY    73  66  78 W7        29.78R
BIG FORK       TSTM      73  70  88 W5        29.76S
LONGVILLE      PTSUNNY   81  66  61 S7        29.76S
GRAND RAPIDS   CLOUDY    81  66  61 S15       29.75F
CRANE LAKE     CLOUDY    72  70  94 SE1       29.75S
COOK           CLOUDY    79  68  69 CALM      29.74F
WALKER         CLOUDY    80  67  64 SW6       29.75S
$$
MNZ012-019>021-037-060100-
   Northeast Minnesota

CITY           SKY/WX    TMP DP  RH WIND       PRES   REMARKS
DULUTH         PTSUNNY   80  68  66 S15G23    29.78F
6HR MIN TEMP:  80; 6HR MAX TEMP:  83;

ELY            CLOUDY    79  64  61 S13G20    29.75F
HIBBING        PTSUNNY   80  66  62 S6        29.76S
DULUTH HARBOR  PTSUNNY   64  63  94 NE9       29.77F
TWO HARBORS    PTSUNNY   75  64  69 S1        29.78S
SILVER BAY     PTSUNNY   75  63  64 S5        29.77F
GRAND MARAIS     N/A     56  52  86 NE6       29.79F
G MARAIS ARPRT CLOUDY    70  59  68 S6        29.85S
$$
MNZ029>031-032-039>041-046>048-054>057-064-060100-
   West Central Minnesota

CITY           SKY/WX    TMP DP  RH WIND       PRES   REMARKS
FERGUS FALLS   SUNNY     82  70  65 NW9       29.74S
WHEATON        MOSUNNY   81  70  69 NW7       29.77R THUNDER
MORRIS         MOSUNNY   86  72  62 S8        29.75R HX  92
ALEXANDRIA     PTSUNNY   84  70  62 S13       29.78S
ELBOW LAKE     FAIR      83  73  70 W7        29.76R
WADENA         CLOUDY    82  68  61 S8        29.77S
GLENWOOD       PTSUNNY   84  72  65 S12G17    29.78S
APPLETON       SUNNY     90  68  48 S9G18     29.74R HX  93
BENSON         SUNNY     88  66  48 SW13G18   29.75S HX  90
ORTONVILLE     MOSUNNY   90  72  55 SW3       29.73S HX  96
MADISON        MOSUNNY   84  66  54 S13G18    29.74F
WILLMAR          N/A     88  70  55 S5        29.77F HX  92
$$
MNZ033>034-036-042>043-049>051-058-059-060100-
   Central Minnesota

CITY           SKY/WX    TMP DP  RH WIND       PRES   REMARKS
ST CLOUD       MOSUNNY   84  71  65 S12G24    29.77F
6HR MIN TEMP:  81; 6HR MAX TEMP:  88;

SAUK CENTRE    FAIR     N/A N/A N/A S12       29.77F
PAYNESVILLE    MOSUNNY   82  68  63 SE10G17   29.77F
AITKIN         PTSUNNY   81  70  69 S8        29.76S
PINE RIVER       N/A     82  70  65 S8        29.80S
BRAINERD       CLOUDY    82  69  64 S12       29.77S
STAPLES        CLOUDY    82  66  57 S5        29.77S
LONG PRAIRIE   FAIR      81  68  65 SE12G17   29.77F
LITTLE FALLS   MOSUNNY   84  66  54 S10G16    29.77F
LITCHFIELD     SUNNY     86  75  70 S6        29.78F HX  95
BUFFALO        PTSUNNY   84  69  60 S10G18    29.81F
MAPLE LAKE     MOSUNNY   84  73  69 S7        29.80F HX  90
$$
MNZ037-044-045-052-053-060100-
   East Central Minnesota

CITY           SKY/WX    TMP DP  RH WIND       PRES   REMARKS
PRINCETON      MOSUNNY   86  72  62 S13       29.78F HX  92
MORA           MOSUNNY   82  70  65 S10       29.80F
CAMBRIDGE      MOSUNNY   88  70  55 S15G22    29.78F HX  92
RUSH CITY      PTSUNNY   81  69  66 S14       29.80F
MOOSE LAKE     MOSUNNY   81  68  65 S13G18    29.76F
HINCKLEY       MOCLDY    82  72  69 S10       29.79F
CLOQUET        PTSUNNY   81  66  61 S10G20    29.78F
MCGREGOR       PTSUNNY   82  70  65 S13G18    29.78S
$$
MNZ071>073-080-081-089-090-097-098-060100-
   Southwest Minnesota

CITY           SKY/WX    TMP DP  RH WIND       PRES   REMARKS
GRANITE FALLS  SUNNY     86  68  55 S13       29.77F
CANBY          MOSUNNY   85  69  57 S10G17    29.76F
MARSHALL       MOSUNNY   86  70  58 S13G18    29.77S HX  90
REDWOOD FALLS  MOSUNNY   88  72  58 S16       29.77F HX  94
OLIVIA         MOSUNNY   84  68  58 S10G16    29.77F
PIPESTONE      MOSUNNY   82  72  69 S9        29.81R
WINDOM         MOSUNNY   84  70  61 S13G22    29.82F
WORTHINGTON    MOSUNNY   84  70  61 S15G23    29.81F
JACKSON        MOSUNNY   86  70  58 S16G22    29.84F HX  90
TRACY          PTSUNNY   86  72  63 S12G17    29.79F HX  92
SLAYTON        MOSUNNY   85  71  63 SE10G18   29.81F
$$
MNZ065>067-074>077-082>085-091>093-060100-
   South Central Minnesota

CITY           SKY/WX    TMP DP  RH WIND       PRES   REMARKS
MANKATO        PTSUNNY   82  70  65 S9G16     29.83F
NEW ULM        SUNNY     84  72  65 S14       29.81S
FAIRMONT       MOSUNNY   84  66  54 S15G21    29.83F
GLENCOE        PTSUNNY   87  74  65 S8        29.80F HX  94
FARIBAULT      MOSUNNY   82  70  65 SE13G22   29.85F
OWATONNA       MOSUNNY   82  68  61 S20       29.86F
WASECA         MOSUNNY   82  68  61 S14G21    29.87F
ALBERT LEA     MOSUNNY   82  68  61 S16G22    29.87F
$$
MNZ078>079-086>088-094>096-060100-
   Southeast Minnesota

CITY           SKY/WX    TMP DP  RH WIND       PRES   REMARKS
ROCHESTER      MOSUNNY   80  66  62 S15G29    29.91F
6HR MIN TEMP:  79; 6HR MAX TEMP:  84;

RED WING       PTSUNNY   84  68  58 S10G16    29.85F
DODGE CENTER   MOSUNNY   81  68  65 S15G23    29.89F
WINONA         PTSUNNY   79  64  61 S3        29.91F
AUSTIN         MOSUNNY   82  66  57 S13G20    29.89F
PRESTON        MOSUNNY   78  64  63 S14       29.93F
$$
ABBREVIATIONS USED IN REMARKS
   TC - TEMPERATURES IN CELSIUS
  WCI - WIND CHILL INDEX
   HX - HEAT INDEX
  VSB - VISIBILITY
$$


USA.gov is the U.S. government's official web portal to all federal, state and local government web resources and services.